Wind_Speed
9 5 8 7 8 9 7 11 10 15 9 7 7 20 19 20 18 18 17 16 16 17 23 23 29 27 28 26 25 25 27 21 23 21 17 13 13 12 12 14 14 8 8 5
7 13 14 12 20 15 18 17 22 23 19 8 10 16 19 19 20 21 20 17 18 17 17 24 28 29 29 31 31 27 28 26 20 21 18 15 13 11 9 5 6 9 12 9
11 12 16 19 13 16 14 22 23 19 17 20 12 9 15 13 13 18 19 20 15 17 21 20 25 28 28 31 27 36 33 28 27 25 20 16 17 18 17 14 11 15 15 9
12 17 18 19 16 25 18 20 25 26 15 5 18 6 11 14 12 18 19 17 16 17 19 18 25 27 29 32 35 34 33 31 30 26 25 22 22 18 18 15 11 15 2 7
14 15 21 18 21 17 15 36 15 5 8 5 7 7 7 13 11 16 20 18 17 19 19 18 24 32 33 31 32 38 36 33 31 30 29 26 21 20 18 16 14 13 9 11
14 11 16 19 19 12 10 12 6 4 2 3 9 7 13 16 14 17 21 19 19 20 19 20 27 26 29 30 32 37 36 35 34 31 30 30 29 25 18 16 14 8 10 10
15 22 20 21 13 13 5 6 1 3 3 7 8 6 8 20 20 19 23 21 21 21 19 19 19 25 28 29 31 34 37 37 35 33 30 29 28 23 19 19 18 14 11 12
12 15 25 15 15 11 8 7 6 6 6 9 1 6 5 20 22 22 24 24 22 22 20 21 22 28 30 30 34 33 36 34 35 33 32 26 26 27 29 21 14 12 13 13
13 10 15 21 16 9 7 10 9 4 4 1 4 2 6 20 17 21 22 22 24 22 21 22 24 31 32 32 34 36 36 36 35 33 29 29 26 24 21 22 18 13 11 12
11 7 15 19 14 13 9 7 6 2 1 1 5 4 6 10 17 19 24 24 24 24 23 22 21 29 33 33 33 34 37 37 35 31 29 27 26 22 19 16 15 9 10 9
20 5 12 17 18 13 5 7 3 5 6 4 2 4 13 11 11 19 20 24 23 24 23 22 21 33 36 35 34 36 36 36 34 31 28 26 23 21 19 16 13 9 6 2
26 5 12 19 7 11 9 9 8 5 8 4 4 6 9 10 14 12 12 21 23 24 22 22 21 32 34 36 35 37 36 36 36 33 29 27 23 21 19 17 12 11 7 7
24 15 9 9 14 7 14 8 7 5 3 7 4 7 2 12 10 9 11 13 20 21 20 20 18 20 31 33 33 36 35 39 38 34 31 29 28 24 21 19 16 13 11 9
21 13 11 13 9 10 14 17 11 10 5 5 7 8 2 5 10 8 9 10 15 17 15 19 15 20 30 33 33 34 35 39 38 35 32 28 28 24 24 21 17 14 14 12
15 19 18 9 13 10 22 21 18 12 15 7 13 9 7 8 10 10 10 10 10 10 10 16 16 16 18 24 29 32 33 35 35 33 31 27 27 26 23 20 18 16 13 10
21 13 17 15 13 14 22 25 22 19 17 13 19 5 8 16 7 9 12 11 10 10 12 11 12 13 15 22 26 30 33 35 35 34 31 30 29 25 23 19 17 14 11 11
20 14 10 19 15 13 9 21 22 17 11 20 14 8 8 4 5 9 10 12 12 14 15 15 13 13 20 24 29 30 34 35 35 34 33 32 28 25 21 19 16 14 12 11
16 15 10 13 4 10 7 6 19 20 14 10 9 6 8 11 17 11 15 13 12 14 13 15 13 18 27 32 31 31 33 33 34 32 32 30 27 24 21 17 16 15 14 12
12 14 5 10 11 5 7 9 3 8 15 13 8 7 7 7 8 0 12 12 13 15 17 19 29 31 32 33 33 34 29 29 29 28 30 28 26 23 22 19 16 15 13 13
2 16 8 5 14 18 9 10 8 5 6 12 10 11 8 6 4 5 8 11 10 11 22 24 27 29 30 30 35 33 28 28 25 28 26 25 23 23 20 18 15 16 13 15
4 9 14 5 4 3 5 12 8 3 9 6 8 6 5 6 6 3 7 6 9 17 23 29 30 27 27 34 35 29 28 25 28 26 25 24 23 21 19 16 15 15 13 13
5 8 5 4 4 5 1 8 11 9 7 7 6 6 7 8 10 10 10 12 16 17 22 28 26 25 29 32 32 28 24 31 30 30 28 26 24 21 19 17 14 14 13 12
0 6 6 9 6 4 4 4 3 3 8 6 9 8 8 8 9 11 12 14 16 20 23 28 31 27 27 29 33 27 30 36 36 32 29 25 21 19 18 16 14 16 12 11
1 4 4 6 4 7 6 5 7 4 6 6 8 8 7 8 6 14 16 15 16 17 21 29 31 28 25 29 27 37 37 38 36 32 28 25 25 21 18 16 12 16 18 16
5 6 3 3 6 4 5 5 5 9 7 10 8 8 8 9 8 17 15 16 16 18 26 29 28 27 27 32 34 37 39 37 35 32 30 28 24 22 20 19 15 14 13 12
5 4 5 4 5 5 5 5 8 6 2 4 4 7 8 7 12 15 14 15 19 20 29 26 27 28 28 34 33 36 38 37 35 31 29 26 25 25 25 21 18 14 13 11
Wind_Direction
231 208 231 174 153 167 215 336 302 285 161 228 142 151 172 174 165 167 172 180 185 192 184 179 188 190 195 198 194 197 189 184 197 202 207 223 238 240 251 273 286 267 293 316
232 224 234 236 182 167 164 180 244 268 266 231 158 170 180 181 174 173 171 179 186 188 169 184 187 196 192 197 202 208 190 194 196 201 205 222 243 257 259 276 281 275 289 294
213 231 225 244 216 144 180 201 225 233 261 222 130 164 178 198 168 169 171 177 182 169 173 182 185 188 193 195 197 198 199 200 209 217 219 228 245 261 264 265 277 283 284 268
229 231 235 231 230 175 177 224 237 233 226 205 153 175 191 194 167 169 168 177 180 171 171 175 185 189 194 199 205 202 200 204 210 213 219 227 235 246 254 261 280 307 244 230
224 205 233 238 237 194 205 196 225 153 186 174 213 113 201 181 167 170 170 177 175 169 173 171 179 189 194 197 198 202 203 206 211 217 222 222 231 240 249 261 274 287 273 275
230 231 229 234 246 236 212 218 273 167 138 7 222 142 171 181 179 176 170 175 167 169 172 174 182 182 187 188 190 199 205 210 215 218 222 227 234 239 247 251 259 279 278 294
226 235 241 237 249 256 207 125 6 11 336 228 246 149 191 189 177 173 170 176 170 169 169 174 177 182 189 194 188 193 203 208 214 217 221 226 229 232 238 245 251 265 277 300
207 224 230 239 225 214 208 183 164 175 212 245 231 203 227 177 173 176 169 173 169 170 171 177 181 182 189 192 193 192 199 201 208 215 218 223 231 235 238 242 247 256 263 277
212 225 232 236 243 207 237 210 221 226 254 351 267 12 60 160 169 170 168 167 171 173 172 177 181 184 186 191 192 193 197 203 209 213 217 219 227 235 241 245 256 262 280 278
236 205 226 237 239 243 162 196 258 339 124 291 277 7 193 167 173 167 169 174 174 176 176 176 180 183 184 190 193 194 201 204 209 211 215 217 220 229 237 237 240 262 272 284
233 205 218 229 222 207 196 231 265 172 146 184 229 192 247 183 174 169 176 174 174 179 179 178 179 180 181 186 189 192 200 200 204 209 211 214 217 224 232 236 237 242 240 249
223 188 234 221 224 204 175 204 192 134 271 218 148 268 263 195 175 164 170 174 177 178 178 178 175 177 178 183 186 189 193 194 202 207 206 207 211 217 222 223 218 201 165 159
212 225 244 257 213 208 193 214 215 189 157 223 157 266 276 160 162 172 162 154 175 178 174 178 173 173 179 182 184 186 188 193 199 201 199 203 206 209 215 194 181 165 162 139
199 220 198 229 218 197 191 206 212 211 202 236 216 249 105 119 137 131 141 142 163 177 169 173 170 176 178 180 182 181 186 190 190 190 193 196 193 186 173 170 169 158 144 144
192 218 226 240 255 220 184 200 213 215 228 173 242 181 209 158 147 147 154 138 127 127 128 163 163 172 167 167 174 176 179 175 174 176 180 173 172 170 170 162 157 149 150 139
198 208 219 243 250 261 199 191 202 219 220 227 245 216 220 164 176 165 158 147 152 132 131 121 125 137 139 144 153 159 156 159 163 164 164 162 161 163 160 155 146 142 136 131
193 193 195 230 234 255 260 202 194 212 228 218 228 208 197 143 139 169 153 153 160 143 140 137 135 131 132 133 139 141 145 152 154 154 155 159 161 158 151 144 141 144 141 148
185 184 189 216 204 237 238 205 197 200 219 233 224 214 165 172 209 170 170 158 163 145 142 139 138 137 137 140 137 140 144 145 147 146 152 158 159 149 148 151 153 157 155 158
182 176 157 185 222 232 246 268 199 182 221 215 216 224 163 183 146 310 165 163 164 157 161 160 155 149 143 142 142 138 136 138 139 140 152 157 154 149 154 155 155 160 160 158
209 165 158 132 207 223 231 247 258 294 220 222 203 230 215 141 127 226 173 156 158 138 145 140 142 142 140 142 141 135 134 136 136 150 151 149 150 151 157 157 156 161 158 153
138 180 183 135 174 227 176 234 271 265 238 125 170 158 114 127 176 171 151 103 142 146 141 138 142 145 141 140 137 134 137 139 147 146 143 146 152 159 159 158 164 169 157 139
148 159 164 120 135 228 147 259 200 220 245 143 145 165 145 139 115 111 110 126 124 125 127 131 127 127 134 138 135 133 134 143 146 145 145 149 156 154 157 161 163 157 158 157
125 147 174 174 194 219 162 183 271 219 201 197 135 124 177 170 135 131 131 130 133 135 134 129 127 128 134 139 141 133 138 144 141 144 146 148 147 157 161 167 172 170 179 205
109 87 110 66 190 201 296 338 347 347 12 161 138 132 112 107 139 142 133 134 134 137 131 132 132 135 135 140 140 140 142 144 148 145 146 151 156 157 161 175 166 138 130 130
255 112 147 132 319 16 359 339 332 329 62 55 60 98 104 96 112 146 145 143 140 136 134 140 139 141 138 135 134 141 147 153 146 147 151 153 156 165 156 150 154 158 146 161
336 255 152 198 211 160 253 286 296 306 181 93 103 99 87 103 134 137 143 146 144 140 142 138 141 139 137 135 139 145 157 158 150 149 155 156 157 155 153 150 141 142 142 145
Height
739 765 778 766 760 759 778 787 799 774 765 768 776 783 782 777 780 789 793 797 800 801 805 810 813 817 821 824 827 831 833 835 838 840 843 845 846 847 848 850 851 850 849 848
753 767 744 736 749 750 775 795 795 776 755 770 774 779 772 770 773 775 782 788 791 795 801 805 809 813 816 820 823 827 830 833 836 838 840 842 843 845 847 849 848 847 845 845
758 747 729 735 741 764 774 785 784 775 753 751 763 788 779 765 762 767 771 775 779 785 794 799 804 807 811 815 818 822 826 829 832 835 837 839 841 842 844 845 846 843 842 844
743 727 731 735 742 745 780 750 746 753 768 788 748 822 787 770 769 767 770 773 774 779 785 792 799 803 806 809 814 818 822 825 828 831 833 836 838 839 841 843 843 841 839 841
741 732 734 738 730 724 744 730 727 728 755 755 758 789 783 766 777 769 766 765 766 771 777 784 790 796 801 806 809 813 817 820 824 827 829 832 834 836 838 841 841 839 839 838
726 706 714 720 707 706 705 725 727 733 756 800 767 776 783 771 761 758 755 756 759 766 772 777 784 791 796 801 805 808 812 815 819 822 825 828 830 833 835 837 838 837 836 836
728 722 705 701 723 707 712 745 795 804 807 810 752 769 767 739 733 737 746 749 751 756 766 773 779 784 790 794 798 802 806 809 813 817 821 824 827 829 830 832 835 836 835 834
752 759 714 695 715 730 730 743 793 808 814 787 744 774 747 711 712 716 724 732 741 749 756 764 770 776 782 788 792 796 800 804 808 812 817 820 822 824 826 829 832 834 834 834
743 743 697 694 693 704 730 747 730 765 758 778 754 732 712 706 714 716 725 730 737 741 747 755 762 768 774 780 784 789 793 799 803 807 812 816 818 820 822 826 829 830 832 832
716 752 706 695 691 692 713 712 759 768 795 800 770 761 762 735 724 718 722 726 729 732 737 744 753 760 767 773 779 785 788 793 798 804 808 811 814 817 820 823 824 826 827 826
702 725 721 701 707 721 721 733 733 745 766 800 804 776 715 720 713 715 712 713 720 725 728 734 741 750 758 766 773 778 783 789 794 799 803 807 810 814 817 818 820 821 822 823
687 712 736 714 687 684 702 722 734 780 777 770 775 776 695 703 701 700 704 705 708 712 719 726 732 742 750 756 764 769 775 782 787 792 797 802 806 808 811 814 817 818 819 820
681 709 743 732 705 691 705 710 716 730 745 768 784 772 683 693 695 694 699 702 703 707 713 720 728 735 742 749 756 762 768 774 780 786 792 797 800 804 808 811 813 815 816 819
669 697 719 734 719 700 717 710 710 727 762 757 758 742 705 699 701 697 696 695 701 703 709 714 723 727 733 741 748 756 762 767 773 781 787 792 796 800 803 807 809 812 814 816
667 698 696 696 687 687 694 703 706 724 723 754 731 735 712 704 699 695 693 696 700 707 710 712 718 723 730 738 744 750 757 762 770 778 784 788 793 798 802 806 810 811 815 818
653 694 690 702 685 682 691 686 693 701 705 715 711 715 690 681 684 692 693 696 702 705 707 710 716 722 728 734 741 747 754 761 767 774 780 787 793 798 803 807 810 814 818 820
656 676 699 713 691 695 716 688 687 692 692 695 720 706 683 686 686 692 694 693 699 703 706 711 716 721 727 733 739 745 752 758 765 772 780 787 793 799 802 807 812 816 820 821
652 673 686 704 706 741 688 658 663 678 679 678 683 681 681 679 679 680 677 686 692 696 703 709 714 722 727 733 741 747 753 759 766 773 780 787 793 798 804 809 813 817 819 820
627 655 697 707 709 693 679 669 671 687 689 667 676 672 670 669 671 678 670 674 681 687 693 699 706 715 725 732 740 747 756 763 770 776 782 787 793 799 805 811 815 818 819 819
630 634 672 697 712 719 685 658 649 656 709 659 662 667 670 669 711 695 671 669 675 683 689 697 708 717 725 733 738 747 757 765 772 778 783 789 795 802 807 811 815 818 819 819
660 659 674 694 703 684 652 648 648 706 715 645 653 657 656 681 682 665 664 669 671 678 689 697 706 715 724 731 738 748 756 764 771 778 785 792 799 804 808 812 815 817 819 820
664 674 685 687 698 708 638 648 681 670 649 640 644 648 654 656 662 666 668 674 677 685 692 698 708 719 727 734 741 749 757 762 771 779 787 794 799 804 808 812 815 818 818 819
665 654 670 669 679 647 636 643 636 637 645 637 640 642 649 653 658 664 672 676 680 684 694 699 708 722 731 737 742 750 758 763 771 779 787 794 800 804 809 813 815 817 817 819
629 627 657 658 644 644 641 637 636 630 633 627 628 633 638 649 654 663 669 676 681 688 695 704 711 722 731 738 744 748 758 764 772 780 788 793 798 803 808 812 814 815 815 816
644 635 649 656 647 643 639 639 637 635 629 631 629 633 640 644 651 660 668 674 681 689 699 706 713 722 729 736 743 751 758 765 773 780 786 793 798 802 806 809 811 811 812 813
643 642 656 668 646 650 646 638 637 637 634 631 633 636 638 641 651 658 669 673 679 688 698 707 716 723 730 735 744 752 759 765 771 780 786 792 796 801 805 807 810 812 813 814